Location: Aalen
(48.8330°N, 10.1000°E)
Time: 04:49:24
(UTC+02:00)

Transit 2A - Pass Details

Date: 30 July 2021
Orbit: 594 x 964 km, 66.7° (Epoch: 27 September)

Event Time Altitude Azimuth Distance (km) Brightness Sun altitude
Rises 10:05:34 0° 262° (W) 2,880 8.6 39.7°
Reaches altitude 10° 10:08:17 10° 280° (W) 2,016 7.8 40.1°
Maximum altitude 10:11:40 20° 328° (NNW) 1,509 7.4 40.6°
Drops below altitude 10° 10:15:16 10° 16° (NNE) 2,160 8.4 41.2°
Sets 10:18:18 0° 33° (NNE) 3,154 9.3 41.6°
